Location: Jackson Park
(37.2862°N, 79.9123°W)
Time: 14:44:16
(UTC+00:00)

Vanguard 2 - Pass Details

Date: 16 May 2026
Orbit: 553 x 2894 km, 32.9° (Epoch: 6 June)

Event Time Altitude Azimuth Distance (km) Brightness Sun altitude
Rises 08:24:09 0° 257° (WSW) 6,552 - -18.3°
Reaches altitude 10° 08:28:21 10° 256° (WSW) 5,646 - -17.7°
Exits shadow 08:29:54 14° 255° (WSW) 5,316 11.2 -17.4°
Maximum altitude 08:46:05 75° 175° (S) 2,805 10.2 -15.0°
Drops below altitude 10° 09:00:16 10° 94° (E) 4,649 12.3 -12.8°
Sets 09:03:21 0° 92° (E) 5,390 12.7 -12.3°
